Saginaw, MI

6:16 AM EDT on May 28, 2018 (GMT -0400)
MBS International

Weather History for KMBS - March, 2013

Change the Weather History Date:

Monday, March 25, 2013

  Actual Average Record
Temperature  
Mean Temperature 36 °F 37 °F  
Max Temperature 39 °F 46 °F 70 °F (2012)
Min Temperature 32 °F 28 °F 12 °F (2011)
Degree Days  
Heating Degree Days 30    
Month to date heating degree days  
Since 1 July heating degree days  
Cooling Degree Days 0    
Month to date cooling degree days  
Year to date cooling degree days  
Moisture  
Dew Point 27 °F    
Average Humidity 71    
Maximum Humidity 79    
Minimum Humidity 62    
Precipitation  
Precipitation 0.00 in 0.06 in 0.49 in (1997)
Month to date precipitation 1.63  
Year to date precipitation 4.95  
Snow  
Snow 0.00 in 0.10 in - ()
Month to date snowfall 5.6  
Since 1 July snowfall 39.0  
Snow Depth -    
Sea Level Pressure  
Sea Level Pressure 29.79 in    
Wind  
Wind Speed 18 mph (NNE)    
Max Wind Speed 28 mph    
Max Gust Speed 32 mph    
Visibility 10 miles    
Events      
T = Trace of Precipitation, MM = Missing Value Source: NWS Daily Summary

Daily Weather History Graph

Daily Weather History Graph

Search for Another Location

Airport or City:

Astronomy

Mar. 25, 2013 Rise Set
Actual Time 7:30 AM EDT 7:54 PM EDT
Civil Twilight 7:01 AM EDT 8:23 PM EDT
Nautical Twilight 6:27 AM EDT 8:57 PM EDT
Astronomical Twilight 5:52 AM EDT 9:32 PM EDT
Moon 6:24 PM EDT (3/25) 6:15 AM EDT (3/25)
Length of Visible Light 13h 22m
Length of Day
12h 24m
Waxing Gibbous, 96% of the Moon is Illuminated
Mar 25
Waxing Gibbous
Mar 27
Full
Apr 3
Last Quarter
Apr 10
New
Apr 18
First Quarter

Hourly Weather History & Observations

Time (EDT) Temp. Windchill Dew Point Humidity Pressure Visibility Wind Dir Wind Speed Gust Speed Precip Events Conditions
12:53 AM 32.0 °F 21.6 °F 25.0 °F 75% 29.75 in 10.0 mi NE 15.0 mph 24.2 mph N/A   Mostly Cloudy
1:53 AM 32.0 °F 20.8 °F 26.1 °F 79% 29.74 in 10.0 mi NE 17.3 mph - N/A   Clear
2:53 AM 33.1 °F 20.9 °F 26.1 °F 75% 29.73 in 10.0 mi NE 21.9 mph 27.6 mph N/A   Partly Cloudy
3:53 AM 32.0 °F 20.1 °F 26.1 °F 79% 29.71 in 10.0 mi NE 19.6 mph - N/A   Mostly Cloudy
4:53 AM 33.1 °F 21.5 °F 27.0 °F 78% 29.70 in 10.0 mi NE 19.6 mph 28.8 mph N/A   Clear
5:53 AM 33.1 °F 20.9 °F 27.0 °F 78% 29.70 in 10.0 mi NE 21.9 mph 26.5 mph N/A   Overcast
6:53 AM 33.1 °F 21.5 °F 25.0 °F 72% 29.70 in 10.0 mi ENE 19.6 mph - N/A   Overcast
7:53 AM 33.1 °F 23.0 °F 27.0 °F 78% 29.72 in 10.0 mi NNE 15.0 mph - N/A   Overcast
8:53 AM 34.0 °F 22.7 °F 24.1 °F 67% 29.73 in 10.0 mi NE 19.6 mph 25.3 mph N/A   Overcast
9:53 AM 34.0 °F 23.0 °F 25.0 °F 70% 29.74 in 10.0 mi NE 18.4 mph 27.6 mph N/A   Overcast
10:53 AM 35.1 °F 23.8 °F 27.0 °F 72% 29.75 in 10.0 mi NNE 20.7 mph - N/A   Overcast
11:44 AM 35.6 °F 24.2 °F 28.4 °F 75% 29.73 in 10.0 mi NNE 21.9 mph 29.9 mph N/A   Overcast
11:53 AM 36.0 °F 24.7 °F 28.0 °F 73% 29.75 in 10.0 mi NNE 21.9 mph 31.1 mph N/A   Overcast
12:33 PM 35.6 °F 23.4 °F 26.6 °F 70% 29.74 in 10.0 mi NNE 25.3 mph 31.1 mph N/A   Overcast
12:53 PM 36.0 °F 24.4 °F 27.0 °F 70% 29.77 in 10.0 mi NNE 23.0 mph 31.1 mph N/A   Overcast
1:53 PM 37.0 °F 24.9 °F 27.0 °F 67% 29.77 in 10.0 mi NNE 27.6 mph 32.2 mph N/A   Overcast
2:53 PM 39.0 °F 28.3 °F 28.0 °F 65% 29.78 in 10.0 mi NNE 24.2 mph 28.8 mph N/A   Overcast
3:53 PM 39.0 °F 29.3 °F 28.9 °F 67% 29.79 in 10.0 mi NE 19.6 mph - N/A   Overcast
4:53 PM 39.9 °F 31.1 °F 30.0 °F 68% 29.80 in 10.0 mi NE 17.3 mph - N/A   Clear
5:53 PM 37.9 °F 29.6 °F 28.0 °F 68% 29.83 in 10.0 mi NNE 13.8 mph - N/A   Overcast
6:53 PM 39.0 °F 30.6 °F 27.0 °F 62% 29.86 in 10.0 mi NE 15.0 mph - N/A   Overcast
7:53 PM 37.0 °F 31.6 °F 27.0 °F 67% 29.89 in 10.0 mi North 6.9 mph - N/A   Overcast
8:53 PM 36.0 °F 29.6 °F 26.1 °F 67% 29.91 in 10.0 mi NNW 8.1 mph - N/A   Overcast
9:53 PM 36.0 °F - 26.1 °F 67% 29.93 in 10.0 mi North - - N/A   Overcast
10:53 PM 36.0 °F 29.0 °F 25.0 °F 64% 29.95 in 10.0 mi NNW 9.2 mph - N/A   Overcast
11:53 PM 36.0 °F 29.0 °F 24.1 °F 62% 29.96 in 10.0 mi NW 9.2 mph - N/A   Overcast